CST,Max TemperatureF,Mean TemperatureF,Min TemperatureF,Max Dew PointF,MeanDew PointF,Min DewpointF,Max Humidity, Mean Humidity, Min Humidity, Max Sea Level PressureIn, Mean Sea Level PressureIn, Min Sea Level PressureIn, Max VisibilityMiles, Mean VisibilityMiles, Min VisibilityMiles, Max Wind SpeedMPH, Mean Wind SpeedMPH, Max Gust SpeedMPH,PrecipitationIn, CloudCover, Events, WindDirDegrees
2011-12-1,39,32,24,27,22,16,75,65,48,30.50,30.27,30.03,10,10,10,23,7,31,0.04,4,,19
2011-12-2,37,24,10,27,15,5,85,70,52,30.51,30.35,30.16,10,9,5,16,5,21,0.00,3,,165
2011-12-3,42,36,30,41,34,28,93,89,81,30.13,30.01,29.87,10,4,1,17,6,23,1.59,8,Rain,52
2011-12-4,30,26,23,25,21,18,86,76,64,30.30,30.18,30.04,10,10,10,17,8,21,0.00,6,,321
2011-12-5,24,19,14,18,13,10,86,78,68,30.51,30.45,30.38,10,9,7,18,5,26,0.00,6,Snow,2
2011-12-6,21,16,8,10,8,3,85,71,58,30.48,30.36,30.25,10,10,10,13,7,,0.00,1,,347
2011-12-7,30,19,8,19,13,3,80,71,55,30.20,30.13,30.08,10,10,10,12,4,,0.00,2,,260
2011-12-8,30,21,12,27,18,9,86,81,74,30.29,30.24,30.19,10,7,1,14,3,,0.03,5,Snow,13
2011-12-9,24,20,14,19,16,10,86,78,64,30.49,30.40,30.31,10,9,2,7,2,,0.02,6,Snow,352
2011-12-10,39,20,1,30,13,-2,86,80,70,30.51,30.42,30.33,10,6,0,10,2,,0.00,2,,206
2011-12-11,44,35,26,36,30,23,86,78,70,30.32,30.24,30.15,10,6,3,20,11,29,0.00,5,,193
2011-12-12,44,42,39,34,32,30,81,71,61,30.28,30.21,30.16,10,10,10,16,8,21,0.00,8,Rain,178
2011-12-13,41,39,37,36,34,32,87,82,75,30.31,30.28,30.22,10,6,2,10,3,,0.03,8,Rain,163
2011-12-14,57,47,37,52,43,30,93,83,75,29.91,29.76,29.65,10,9,2,17,9,23,0.04,7,Rain,252
2011-12-15,37,30,23,30,23,18,81,69,56,30.41,30.21,29.91,10,10,7,17,9,25,0.00,5,,322
2011-12-16,35,25,15,27,20,10,86,77,60,30.47,30.40,30.32,10,9,5,12,2,,0.00,2,,201
2011-12-17,46,35,24,32,25,18,86,74,53,30.34,30.31,30.26,10,10,7,8,5,,0.00,1,,241
2011-12-18,53,38,24,37,29,19,87,74,54,30.25,30.05,29.86,10,10,10,14,3,18,0.00,1,,195
2011-12-19,41,34,28,36,27,25,93,78,65,30.24,30.05,29.85,10,9,5,23,8,30,0.00,2,,26
2011-12-20,37,34,30,27,25,23,80,75,65,30.24,29.98,29.81,10,9,3,22,9,25,0.00,6,Snow,27
2011-12-21,44,34,24,30,25,19,86,73,53,30.01,29.80,29.73,10,10,7,14,4,,0.00,2,,216
2011-12-22,33,26,19,28,19,12,81,66,48,30.41,30.25,30.02,10,10,10,28,13,33,0.00,3,,9
2011-12-23,39,26,12,19,14,7,86,68,39,30.44,30.34,30.22,10,10,10,21,5,26,0.00,2,,228
2011-12-24,46,30,15,25,19,10,86,68,37,30.36,30.30,30.28,10,10,7,14,4,,0.00,2,,241
2011-12-25,48,34,21,25,20,16,86,61,32,30.45,30.37,30.30,10,10,10,8,4,,0.00,1,,262
2011-12-26,48,32,17,30,24,14,86,70,46,30.30,30.09,29.93,10,10,10,18,5,25,0.00,3,Rain,206
2011-12-27,44,37,28,25,22,21,75,57,39,30.09,30.01,29.89,10,10,10,17,9,24,0.00,2,,311
2011-12-28,50,36,21,28,23,18,86,67,37,30.06,29.94,29.81,10,10,10,12,3,,0.00,2,,213
2011-12-29,55,42,28,37,29,21,86,64,36,29.76,29.68,29.51,10,10,10,18,6,23,0.00,3,Rain,211
2011-12-30,48,38,28,39,31,23,81,64,50,29.91,29.74,29.50,10,10,10,23,14,33,0.00,5,Rain,304
2011-12-31,60,43,26,32,28,21,86,61,27,29.93,29.69,29.46,10,10,5,22,11,32,0.02,2,Rain,210